(346922) = 2009 YV4

Discovered at Mount Lemmon on 2009-12-17 by Mt. Lemmon Survey.

Orbit

Orbit type: Main Belt

Note: WebGL enabled browser required.

epoch2024-03-31.0
epoch JD2460400.5
perihelion date2024-02-18.48046
perihelion JD2460358.98046
argument of perihelion (°)96.69324
ascending node (°)80.79992
inclination (°)5.46202
eccentricity0.0741946
perihelion distance (AU)2.0924803
Tisserand w.r.t. Jupiter3.6
ΔV w.r.t. Earth (km/sec)9.1
semimajor axis (AU)2.2601730
mean anomaly (°)12.04326
mean daily motion (°/day)0.29006250
aphelion distance (AU)2.428
period (years)3.4
P-vector [x]-0.99459148
P-vector [y]0.00186320
P-vector [z]0.10384759
Q-vector [x]-0.04426105
Q-vector [y]-0.91211336
Q-vector [z]-0.40754162
absolute magnitude17.54
phase slope0.15
uncertainty0
referenceE2024-GI3
observations used242
oppositions14
arc length (days)11424
first opposition used1993
last opposition used2024
residual rms (arc-secs)0.69
perturbers coarse indicatorM-v
perturbers precise indicator003Ek
first observation date used1993-01-01.0
last observation date used2024-04-12.0
computer nameMPCLINUX
JD of orbit computation2456847.604368
perihelion JD uncertainty (days)1.9878E-04
argument of perihelion uncertainty (°)7.0409E-05
ascending node uncertainty (°)3.6060E-05
inclination uncertainty (°)6.1987E-06
eccentricity uncertainty 5.2437E-08
perihelion distance uncertainty (AU)1.1422E-07
Minimum Orbit Intersection Distances (in AU)
for orbit epoch: 2460400.5, reference: E2024-GI3
Mercury1.68029
Venus1.37327
Earth1.10436
Mars0.44913
Jupiter2.53862
Saturn6.76604
Uranus16.3497
Neptune27.4226

Observations

231 total observations over interval: 1993 01 01.32908 – 2024 03 20.280614
These data are available for download (format description).

Date (UT) J2000 RA J2000 Dec Magn Location Ref
1993 01 01.32908 08 18 17.85 +24 47 19.8 20.3 V 691 – Steward Observatory, Kitt Peak-Spacewatch MPS 312080
1993 01 01.34003 08 18 17.26 +24 47 24.6   691 – Steward Observatory, Kitt Peak-Spacewatch MPS 312080
1993 01 01.35032 08 18 16.69 +24 47 28.2   691 – Steward Observatory, Kitt Peak-Spacewatch MPS 312080
1993 01 23.23322 07 54 54.92 +27 04 48.7   691 – Steward Observatory, Kitt Peak-Spacewatch MPS 312080
1993 01 23.26291 07 54 52.78 +27 04 58.1   691 – Steward Observatory, Kitt Peak-Spacewatch MPS 312080
1993 01 23.29266 07 54 50.67 +27 05 08.3 20.0 V 691 – Steward Observatory, Kitt Peak-Spacewatch MPS 312080
1995 12 16.12124 03 19 17.64 +15 42 57.6   691 – Steward Observatory, Kitt Peak-Spacewatch MPS 312080
1995 12 16.14314 03 19 16.67 +15 42 58.7   691 – Steward Observatory, Kitt Peak-Spacewatch MPS 312080
1995 12 16.16476 03 19 15.68 +15 42 59.2 20.7 V 691 – Steward Observatory, Kitt Peak-Spacewatch MPS 312080
1995 12 28.12850 03 12 56.17 +15 57 06.6 21.2 V 691 – Steward Observatory, Kitt Peak-Spacewatch MPS 312080
1995 12 28.15027 03 12 55.70 +15 57 09.3   691 – Steward Observatory, Kitt Peak-Spacewatch MPS 312080
1995 12 28.17211 03 12 55.24 +15 57 11.9   691 – Steward Observatory, Kitt Peak-Spacewatch MPS 312080
2002 12 08.35640 05 55 57.04 +23 50 43.3 21.9 V 291 – LPL/Spacewatch II MPS 312080
2002 12 08.38539 05 55 54.99 +23 50 48.6 21.3 V 291 – LPL/Spacewatch II MPS 312080
2002 12 08.41080 05 55 53.28 +23 50 53.1 21.4 V 291 – LPL/Spacewatch II MPS 312080
2007 05 23.17973 12 26 28.24 +04 21 41.7 20.1 V G96 – Mt. Lemmon Survey MPS 312080
2007 05 23.18571 12 26 28.35 +04 21 39.4 21.3 V G96 – Mt. Lemmon Survey MPS 312080
2007 05 23.19175 12 26 28.42 +04 21 37.4 20.8 V G96 – Mt. Lemmon Survey MPS 312080
2007 05 23.19773 12 26 28.50 +04 21 34.9 21.5 V G96 – Mt. Lemmon Survey MPS 312080
2009 11 21.40187 08 29 39.62 +21 35 25.5 21.6 V G96 – Mt. Lemmon Survey MPS 311254
2009 11 21.41017 08 29 39.91 +21 35 26.7 20.9 V G96 – Mt. Lemmon Survey MPS 311254
2009 11 21.41844 08 29 40.09 +21 35 27.1 21.2 V G96 – Mt. Lemmon Survey MPS 311254
2009 11 21.42660 08 29 40.38 +21 35 28.2 21.4 V G96 – Mt. Lemmon Survey MPS 311254
2009 12 17.39028 08 33 56.48 +23 00 03.4 20.6 V G96 – Mt. Lemmon Survey MPS 308799
2009 12 17.39725 08 33 56.34 +23 00 06.0 20.9 V G96 – Mt. Lemmon Survey MPS 308799
2009 12 17.40416 08 33 56.19 +23 00 08.0 20.6 V G96 – Mt. Lemmon Survey MPS 308799
2009 12 17.41119 08 33 56.05 +23 00 09.7 20.9 V G96 – Mt. Lemmon Survey MPS 308799
2009 12 18.45510 08 33 36.32 +23 05 41.2 20.3 V 691 – Steward Observatory, Kitt Peak-Spacewatch MPS 308799
2009 12 18.47284 08 33 35.94 +23 05 46.4 20.7 V 691 – Steward Observatory, Kitt Peak-Spacewatch MPS 308799
2009 12 18.49058 08 33 35.54 +23 05 52.2 20.7 V 691 – Steward Observatory, Kitt Peak-Spacewatch MPS 308799
2010 01 12.29663 08 15 10.44 +25 44 40.4 20.1 V 703 – Catalina Sky Survey MPS 311254
2010 01 12.30347 08 15 09.97 +25 44 43.0 19.9 V 703 – Catalina Sky Survey MPS 311254
2010 01 12.31045 08 15 09.57 +25 44 46.0 20.6 V 703 – Catalina Sky Survey MPS 311254
2010 01 12.31737 08 15 08.96 +25 44 48.7 19.9 V 703 – Catalina Sky Survey MPS 311254
2010 01 14.18027 08 13 07.93 +25 57 08.1   691 – Steward Observatory, Kitt Peak-Spacewatch MPS 311254
2010 01 14.19797 08 13 06.72 +25 57 15.0   691 – Steward Observatory, Kitt Peak-Spacewatch MPS 311254
2010 01 14.21567 08 13 05.50 +25 57 22.4   691 – Steward Observatory, Kitt Peak-Spacewatch MPS 311254
2012 11 06.535773 04 05 32.401 +16 41 38.10 20.2 i F51 – Pan-STARRS 1, Haleakala MPS 439603
2012 11 06.548917 04 05 31.608 +16 41 37.23 20.2 i F51 – Pan-STARRS 1, Haleakala MPS 439603
2012 11 07.376573 04 04 43.349 +16 40 44.89 20.3 w F51 – Pan-STARRS 1, Haleakala MPS 439603
2012 11 07.391757 04 04 42.426 +16 40 43.60 20.5 w F51 – Pan-STARRS 1, Haleakala MPS 439603
2012 11 07.406933 04 04 41.482 +16 40 43.17 20.2 w F51 – Pan-STARRS 1, Haleakala MPS 439603
2012 11 07.422023 04 04 40.543 +16 40 42.18 20.3 w F51 – Pan-STARRS 1, Haleakala MPS 439603
2012 11 12.36836 03 59 32.962 +16 35 15.76 20.5 g F51 – Pan-STARRS 1, Haleakala MPS 441811
2012 11 12.38101 03 59 32.105 +16 35 15.17 20.6 g F51 – Pan-STARRS 1, Haleakala MPS 441811
2012 11 13.10456 03 58 44.81 +16 34 26.2 20.0 R J04 – ESA Optical Ground Station, Tenerife MPS 443464
2012 11 13.11614 03 58 44.03 +16 34 25.1 19.5 R J04 – ESA Optical Ground Station, Tenerife MPS 443464
2012 11 13.12771 03 58 43.24 +16 34 24.3 19.7 R J04 – ESA Optical Ground Station, Tenerife MPS 443464
2012 11 13.13928 03 58 42.46 +16 34 23.5 19.8 R J04 – ESA Optical Ground Station, Tenerife MPS 443464
2012 11 19.17799 03 51 57.07 +16 27 34.6 20.3 V 691 – Steward Observatory, Kitt Peak-Spacewatch MPS 443464
2012 11 19.19915 03 51 55.55 +16 27 33.3 20.1 V 691 – Steward Observatory, Kitt Peak-Spacewatch MPS 443464
2012 11 19.21685 03 51 54.33 +16 27 32.4 20.2 V 691 – Steward Observatory, Kitt Peak-Spacewatch MPS 443464
2012 12 03.12162 03 36 20.23 +16 15 04.6 19.9 V G96 – Mt. Lemmon Survey MPS 445946
2012 12 03.13178 03 36 19.54 +16 15 04.5 20.1 V G96 – Mt. Lemmon Survey MPS 445946
2012 12 03.13690 03 36 19.18 +16 15 04.4 19.9 V G96 – Mt. Lemmon Survey MPS 445946
2014 02 28.54790 15 24 10.036 -12 25 22.56 21.1 w F51 – Pan-STARRS 1, Haleakala MPS 505330
2014 02 28.55983 15 24 10.615 -12 25 23.87 21.1 w F51 – Pan-STARRS 1, Haleakala MPS 505330
2014 02 28.57179 15 24 11.178 -12 25 25.55 20.9 w F51 – Pan-STARRS 1, Haleakala MPS 505330
2014 02 28.58372 15 24 11.740 -12 25 26.88 21.0 w F51 – Pan-STARRS 1, Haleakala MPS 505330
2014 05 03.42201 15 13 13.96 -11 51 17.8 19.4 V G96 – Mt. Lemmon Survey MPS 515169
2014 05 03.42710 15 13 13.62 -11 51 17.4 19.5 V G96 – Mt. Lemmon Survey MPS 515169
2014 05 03.43218 15 13 13.32 -11 51 16.7 19.4 V G96 – Mt. Lemmon Survey MPS 515169
2014 05 03.43727 15 13 12.98 -11 51 16.3 19.2 V G96 – Mt. Lemmon Survey MPS 515169
2014 05 04.36487 15 12 15.54 -11 49 46.5 19.3 V G96 – Mt. Lemmon Survey MPS 515169
2014 05 04.37097 15 12 15.13 -11 49 46.0 19.5 V G96 – Mt. Lemmon Survey MPS 515169
2014 05 04.37707 15 12 14.73 -11 49 45.2 19.2 V G96 – Mt. Lemmon Survey MPS 515169
2014 05 04.38318 15 12 14.36 -11 49 44.5 19.2 V G96 – Mt. Lemmon Survey MPS 515169
2014 05 08.42028 15 08 00.509 -11 43 39.80 19.3 i F51 – Pan-STARRS 1, Haleakala MPS 515169
2014 05 08.43251 15 07 59.704 -11 43 38.74 19.4 i F51 – Pan-STARRS 1, Haleakala MPS 515169
2014 05 08.44473 15 07 58.888 -11 43 37.76 19.4 i F51 – Pan-STARRS 1, Haleakala MPS 515169
2014 05 10.41816 15 05 54.182 -11 41 00.28 19.4 i F51 – Pan-STARRS 1, Haleakala MPS 515169
2014 05 10.43020 15 05 53.376 -11 40 59.33 19.3 i F51 – Pan-STARRS 1, Haleakala MPS 515169
2014 05 10.44217 15 05 52.585 -11 40 58.37 19.4 i F51 – Pan-STARRS 1, Haleakala MPS 515169
2014 05 10.45415 15 05 51.797 -11 40 57.58 19.3 i F51 – Pan-STARRS 1, Haleakala MPS 515169
2014 05 21.34052 14 54 51.667 -11 32 08.03 19.8 w F51 – Pan-STARRS 1, Haleakala MPS 516357
2014 05 21.36748 14 54 50.067 -11 32 07.61 19.8 w F51 – Pan-STARRS 1, Haleakala MPS 516357
2014 05 21.38093 14 54 49.267 -11 32 07.40 19.9 w F51 – Pan-STARRS 1, Haleakala MPS 516357
2014 05 27.34401 14 49 33.114 -11 32 26.93 20.0 w F51 – Pan-STARRS 1, Haleakala MPS 517802
2014 05 27.35509 14 49 32.535 -11 32 27.19 20.0 w F51 – Pan-STARRS 1, Haleakala MPS 517802
2014 05 27.36620 14 49 31.960 -11 32 27.47 20.0 w F51 – Pan-STARRS 1, Haleakala MPS 517802
2014 05 29.37152 14 47 56.451 -11 33 32.52 19.9 w F51 – Pan-STARRS 1, Haleakala MPS 517802
2014 05 29.38230 14 47 55.919 -11 33 32.92 20.1 w F51 – Pan-STARRS 1, Haleakala MPS 517802
2014 06 17.23051 14 38 40.19 -12 09 38.5 20.3 V G96 – Mt. Lemmon Survey MPS 519957
2014 06 17.23508 14 38 40.13 -12 09 39.2 20.1 V G96 – Mt. Lemmon Survey MPS 519957
2014 06 17.23965 14 38 40.08 -12 09 39.8 20.2 V G96 – Mt. Lemmon Survey MPS 519957
2014 06 17.24422 14 38 40.00 -12 09 40.6 20.3 V G96 – Mt. Lemmon Survey MPS 519957
2014 06 26.25219 14 38 11.21 -12 42 58.1 20.4 V G96 – Mt. Lemmon Survey MPS 521238
2014 06 26.25674 14 38 11.21 -12 42 59.3 20.4 V G96 – Mt. Lemmon Survey MPS 521238
2014 06 26.26128 14 38 11.22 -12 43 00.6 20.6 V G96 – Mt. Lemmon Survey MPS 521238
